Date String (YYYY-MM-DD hh:mm:ss) UTC,Instrument flags,absolute air pressure of the measurement (hPa),sample flow rate (lpm),inlet stack bypass flow (lpm),air temperature of the measurement (°C),ambient temperature measured by the external sensor (°C),aerosol sample conditioner tube jacket temperature (°C),OPC LED temperature (°C),internal box temperature (°C),relative humidity of the measurement (%),span deviation,mass concentration of particles derived from Lorenz-Mie calculation of OPC scattering (μg/m³),mass concentration of particles derived from Lorenz-Mie calculation of OPC scattering (μg/m³),mass concentration of particles derived from Lorenz-Mie calculation of OPC scattering (μg/m³)
DateTimeUTC,F1_M11,P_M11,Q1_M11,Q2_M11,T1_M11,T2_M11,T3_M11,T4_M11,T5_M11,U1_M11,ZSPAN_M11,X2_M11,X0_M11,X1_M11
2023-07-15 19:00:00,SystemResetWarning,0835.7,5.00,000.00,029.2,027.2,000.0,037.5,030.6,33.9,0000.0,0005.66,0011.91,0005.03
2023-07-15 19:01:00,SystemResetWarning,0835.7,5.00,000.00,029.2,027.5,000.0,037.5,030.7,32.8,0000.0,0005.68,0011.92,0005.04
2023-07-15 19:02:00,SystemResetWarning,0835.8,5.00,000.00,029.2,027.6,000.0,037.5,030.8,32.9,0000.0,0005.68,0011.77,0005.06
2023-07-15 19:03:00,SystemResetWarning,0835.6,4.99,000.00,029.3,026.6,000.0,037.4,030.7,32.7,-001.1,0005.67,0011.94,0005.07
2023-07-15 19:04:00,SystemResetWarning,0835.6,5.00,000.00,029.2,025.2,000.0,037.3,030.5,33.5,-001.1,0005.63,0011.92,0005.06
2023-07-15 19:05:00,SystemResetWarning,0835.6,5.01,000.00,029.1,024.9,000.0,037.3,030.3,33.3,-001.5,0005.64,0012.07,0005.07
2023-07-15 19:06:00,SystemResetWarning,0835.6,5.02,000.00,029.0,025.2,000.0,037.3,030.2,33.1,-001.8,0005.68,0012.28,0005.07
2023-07-15 19:07:00,SystemResetWarning,0835.6,5.00,000.00,029.0,025.6,000.0,037.3,030.2,33.6,-001.5,0005.64,0011.92,0005.06
2023-07-15 19:08:00,SystemResetWarning,0835.6,5.00,000.00,029.0,026.1,000.0,037.4,030.3,33.8,-000.6,0005.67,0011.98,0005.07
2023-07-15 19:09:00,SystemResetWarning,0835.6,5.00,000.00,029.0,026.5,000.0,037.4,030.4,33.7,0000.0,0005.68,0011.97,0005.07
2023-07-15 19:10:00,SystemResetWarning,0835.5,5.00,000.00,029.0,026.9,000.0,037.4,030.5,34.0,0000.0,0005.69,0012.16,0005.07
2023-07-15 19:11:00,SystemResetWarning,0835.6,5.00,000.00,029.0,027.2,000.0,037.4,030.6,33.7,0000.0,0005.70,0012.15,0005.07
2023-07-15 19:12:00,SystemResetWarning,0835.6,4.99,000.00,029.1,027.5,000.0,037.4,030.6,34.4,0000.0,0005.70,0011.65,0005.08
2023-07-15 19:13:00,SystemResetWarning,0835.6,4.99,000.00,029.1,027.7,000.0,037.4,030.7,33.5,0000.0,0005.74,0011.42,0005.10
2023-07-15 19:14:00,SystemResetWarning,0835.6,5.00,000.00,029.1,027.0,000.0,037.4,030.7,32.9,0000.0,0005.75,0011.50,0005.09
2023-07-15 19:15:00,SystemResetWarning,0835.5,5.00,000.00,029.1,025.5,000.0,037.2,030.4,33.2,0000.0,0005.73,0012.17,0005.09
2023-07-15 19:16:00,SystemResetWarning,0835.5,5.00,000.00,029.0,025.0,000.0,037.2,030.3,33.4,0000.0,0005.72,0012.62,0005.07
2023-07-15 19:17:00,SystemResetWarning,0835.5,5.01,000.00,028.9,025.2,000.0,037.2,030.1,33.8,0000.0,0005.71,0013.16,0005.08
2023-07-15 19:18:00,SystemResetWarning,0835.5,5.00,000.00,028.9,025.6,000.0,037.2,030.2,34.4,0000.0,0005.74,0014.10,0005.09
2023-07-15 19:19:00,SystemResetWarning,0835.5,4.99,000.00,028.9,026.0,000.0,037.3,030.2,33.6,0000.0,0005.72,0014.82,0005.08
2023-07-15 19:20:00,SystemResetWarning,0835.5,5.00,000.00,028.9,026.4,000.0,037.3,030.3,32.3,0000.0,0005.73,0014.89,0005.08
2023-07-15 19:21:00,SystemResetWarning,0835.5,5.01,000.00,028.9,026.8,000.0,037.3,030.4,32.2,-000.1,0005.77,0015.07,0005.09
2023-07-15 19:22:00,SystemResetWarning,0835.5,5.00,000.00,028.9,027.2,000.0,037.3,030.5,32.4,-000.5,0005.78,0015.35,0005.08
2023-07-15 19:23:00,SystemResetWarning,0835.5,4.99,000.00,029.0,027.4,000.0,037.3,030.6,31.7,-000.1,0005.81,0015.77,0005.08
2023-07-15 19:24:00,SystemResetWarning,0835.5,5.00,000.00,029.0,027.7,000.0,037.4,030.7,31.6,0000.0,0005.82,0015.49,0005.08
2023-07-15 19:25:00,SystemResetWarning,0835.5,4.99,000.00,029.1,027.3,000.0,037.3,030.7,32.1,-000.2,0005.85,0014.82,0005.07
2023-07-15 19:26:00,SystemResetWarning,0835.6,5.00,000.00,029.0,025.7,000.0,037.2,030.5,32.0,0000.0,0005.86,0014.59,0005.07
2023-07-15 19:27:00,SystemResetWarning,0835.5,5.00,000.00,029.0,024.9,000.0,037.1,030.3,31.6,0000.0,0005.89,0014.03,0005.07
2023-07-15 19:28:00,SystemResetWarning,0835.5,5.00,000.00,028.9,025.0,000.0,037.1,030.1,31.2,0000.0,0005.85,0014.03,0005.06
2023-07-15 19:29:00,SystemResetWarning,0835.5,5.01,000.00,028.8,025.4,000.0,037.1,030.1,31.8,0000.0,0005.85,0013.41,0005.05
2023-07-15 19:30:00,SystemResetWarning,0835.5,5.00,000.00,028.8,025.8,000.0,037.2,030.2,30.9,0000.0,0005.85,0012.85,0005.05
2023-07-15 19:31:00,SystemResetWarning,0835.5,5.00,000.00,028.8,026.3,000.0,037.2,030.3,31.9,0000.0,0005.85,0012.78,0005.04
2023-07-15 19:32:00,SystemResetWarning,0835.5,5.00,000.00,028.8,026.7,000.0,037.2,030.4,31.5,0000.0,0005.83,0013.22,0005.03
2023-07-15 19:33:00,SystemResetWarning,0835.5,5.01,000.00,028.9,027.0,000.0,037.2,030.5,32.3,0000.0,0005.83,0013.07,0005.03
2023-07-15 19:34:00,SystemResetWarning,0835.5,5.00,000.00,028.9,027.3,000.0,037.3,030.5,31.7,0000.0,0005.79,0012.85,0005.01
2023-07-15 19:35:00,SystemResetWarning,0835.5,4.99,000.00,028.9,027.6,000.0,037.3,030.6,31.1,-000.2,0005.77,0012.79,0004.99
2023-07-15 19:36:00,SystemResetWarning,0835.5,4.99,000.00,029.0,027.8,000.0,037.3,030.7,30.7,0000.0,0005.74,0013.12,0004.99
2023-07-15 19:37:00,SystemResetWarning,0835.5,5.00,000.00,029.0,026.9,000.0,037.2,030.6,31.4,0000.0,0005.75,0013.02,0004.99
2023-07-15 19:38:00,SystemResetWarning,0835.5,5.00,000.00,029.0,025.4,000.0,037.1,030.3,32.8,0000.0,0005.73,0012.83,0004.99
2023-07-15 19:39:00,SystemResetWarning,0835.4,5.01,000.00,028.9,024.9,000.0,037.0,030.2,31.3,0000.0,0005.73,0012.24,0005.00
2023-07-15 19:40:00,SystemResetWarning,0835.4,5.01,000.00,028.8,025.1,000.0,037.1,030.1,31.6,0000.2,0005.73,0011.95,0005.00
2023-07-15 19:41:00,SystemResetWarning,0835.3,5.00,000.00,028.8,025.5,000.0,037.1,030.1,31.2,0000.6,0005.74,0011.67,0005.00
2023-07-15 19:42:00,SystemResetWarning,0835.2,4.99,000.00,028.8,026.0,000.0,037.1,030.2,31.2,0000.8,0005.72,0011.82,0005.00
2023-07-15 19:43:00,SystemResetWarning,0835.3,5.00,000.00,028.8,026.4,000.0,037.2,030.3,30.5,0000.5,0005.74,0012.02,0005.00
2023-07-15 19:44:00,SystemResetWarning,0835.2,5.00,000.00,028.8,026.8,000.0,037.2,030.4,30.5,0000.0,0005.72,0011.43,0005.00
2023-07-15 19:45:00,SystemResetWarning,0835.3,5.01,000.00,028.9,027.2,000.0,037.2,030.5,30.8,0000.6,0005.74,0011.48,0005.00
2023-07-15 19:46:00,SystemResetWarning,0835.3,5.01,000.00,028.9,027.5,000.0,037.2,030.6,30.4,0000.3,0005.75,0011.49,0005.00
2023-07-15 19:47:00,SystemResetWarning,0835.3,4.99,000.00,028.9,027.7,000.0,037.3,030.7,29.8,0000.0,0005.73,0010.95,0005.01
2023-07-15 19:48:00,SystemResetWarning,0835.3,4.99,000.00,029.0,027.2,000.0,037.2,030.6,30.9,0000.8,0005.73,0011.52,0005.00
2023-07-15 19:49:00,SystemResetWarning,0835.2,5.00,000.00,028.9,025.6,000.0,037.1,030.4,31.3,0000.9,0005.78,0012.38,0005.00
2023-07-15 19:50:00,SystemResetWarning,0835.3,5.00,000.00,028.9,024.9,000.0,037.0,030.2,31.9,0000.6,0005.81,0012.72,0005.00
2023-07-15 19:51:00,SystemResetWarning,0835.3,5.01,000.00,028.8,025.0,000.0,037.0,030.0,32.9,0000.3,0005.80,0012.72,0005.00
2023-07-15 19:52:00,SystemResetWarning,0835.3,5.01,000.00,028.7,025.4,000.0,037.1,030.1,32.5,0000.0,0005.81,0012.87,0005.01
2023-07-15 19:53:00,SystemResetWarning,0835.3,4.99,000.00,028.7,025.9,000.0,037.1,030.2,31.7,0000.0,0005.79,0012.74,0005.01
2023-07-15 19:54:00,SystemResetWarning,0835.2,5.00,000.00,028.7,026.3,000.0,037.1,030.3,30.9,0000.0,0005.76,0012.46,0005.00
2023-07-15 19:55:00,SystemResetWarning,0835.2,5.00,000.00,028.8,026.7,000.0,037.1,030.4,30.8,0000.0,0005.74,0012.75,0005.00
2023-07-15 19:56:00,SystemResetWarning,0835.2,5.01,000.00,028.8,027.1,000.0,037.2,030.5,31.0,0000.0,0005.72,0012.91,0005.00
2023-07-15 19:57:00,SystemResetWarning,0835.2,4.99,000.00,028.8,027.4,000.0,037.2,030.5,31.5,0000.0,0005.69,0012.98,0004.99
2023-07-15 19:58:00,SystemResetWarning,0835.2,4.99,000.00,028.9,027.6,000.0,037.2,030.6,32.1,0000.0,0005.68,0012.98,0004.99
2023-07-15 19:59:00,SystemResetWarning,0835.2,5.00,000.00,029.0,027.8,000.0,037.3,030.7,32.9,0000.0,0005.69,0012.84,0005.01
